Location: Nairn
(57.5833°N, 3.8667°W)
Time: 16:03:55
(UTC+00:00)

S-56A Canister/Altair - Pass Details

Date: 05 December 2020
Orbit: 633 x 2499 km, 38.9° (Epoch: 19 January)

Event Time Altitude Azimuth Distance (km) Brightness Sun altitude
Rises 15:58:05 0° 191° (SSW) 6,125 13.0 -3.4°
Reaches altitude 10° 16:05:02 10° 171° (S) 4,933 12.1 -4.2°
Maximum altitude 16:10:58 14° 145° (SE) 4,327 11.4 -4.8°
Drops below altitude 10° 16:16:19 10° 119° (ESE) 4,353 11.1 -5.4°
Sets 16:21:37 0° 97° (E) 4,965 11.2 -6.0°
